Voltar ao catálogo

STARLINK-2346

AtivoComunicaçõesVLEO
NORAD 47887·PAYLOAD·🇺🇸 United States

Lançado Mar 14, 2021 de Cape Canaveral Space Force Station

Loading…

Próximas Passagens (próximas 24 horas)

TLE

AtualizadoSource: CelesTrak SupGP

Época: Sep 14, 2026, 21:50 UTC

1 47887C 21021AD  26257.91020833 -.00011294  00000+0 -36327-3 0  2577
2 47887  53.1573 120.3904 0001251  80.5625   0.5257 15.31700619    17

Acompanhe STARLINK-2346 em tempo real com AllMySat

Download on the App Store